When you browse on this site, cookies collect data to enhance your experience and personalize the content and advertising you see.
Visit our Privacy Policy to learn more. By continuing to use the site, you agree to this use of cookies and data.
  • In Portugal
  • List of Countries
  • For 7 days
  • Water Temperature
  • Satellite Maps
  • Weather Map
  • Weather Widgets
  • user-avatar
    Login

    Hourly Weather Blagoevgrad

    Today, 25 May, Saturday

    Time Temperature Precipitation Wind Pressure Humidity
    00:00 +11°C° 0 mm 1 mps 717 mmHg 87%
    01:00 +11°C° 0 mm 1 mps 717 mmHg 87%
    02:00 +10°C° 0 mm 1 mps 717 mmHg 89%
    03:00 +10°C° 0 mm 1 mps 717 mmHg 89%
    04:00 +10°C° 0 mm 1 mps 717 mmHg 89%
    05:00 +10°C° 0 mm 1 mps 717 mmHg 89%
    06:00 +12°C° 0 mm 1 mps 718 mmHg 82%
    07:00 +14°C° 0 mm 1 mps 718 mmHg 74%
    08:00 +17°C° 0 mm 3 mps 718 mmHg 67%
    09:00 +17°C° 0 mm 3 mps 718 mmHg 65%
    10:00 +18°C° 0 mm 3 mps 718 mmHg 63%
    11:00 +19°C° 0 mm 3 mps 719 mmHg 61%
    12:00 +20°C° 0 mm 3 mps 719 mmHg 58%
    13:00 +21°C° 0 mm 3 mps 719 mmHg 55%
    14:00 +22°C° 0 mm 3 mps 719 mmHg 51%
    15:00 +22°C° 0 mm 3 mps 719 mmHg 52%
    16:00 +23°C° 0 mm 2 mps 718 mmHg 53%
    17:00 +23°C° 0 mm 2 mps 718 mmHg 54%
    18:00 +19°C° 0 mm 2 mps 718 mmHg 63%
    19:00 +18°C° 0 mm 1 mps 718 mmHg 71%
    20:00 +15°C° 0 mm 1 mps 718 mmHg 80%
    21:00 +14°C° 0 mm 1 mps 719 mmHg 80%
    22:00 +14°C° 0 mm 1 mps 719 mmHg 81%
    23:00 +13°C° 0 mm 1 mps 720 mmHg 82%

    Tomorrow, 26 May, Sunday

    Time Temperature Precipitation Wind Pressure Humidity
    00:00 +13°C° 0 mm 1 mps 720 mmHg 81%
    01:00 +13°C° 0 mm 1 mps 720 mmHg 81%
    02:00 +13°C° 0 mm 1 mps 720 mmHg 81%
    03:00 +12°C° 0 mm 1 mps 720 mmHg 80%
    04:00 +12°C° 0 mm 1 mps 720 mmHg 79%
    05:00 +12°C° 0 mm 1 mps 720 mmHg 78%
    06:00 +15°C° 0 mm 1 mps 720 mmHg 70%
    07:00 +19°C° 0 mm 1 mps 720 mmHg 62%
    08:00 +19°C° 0 mm 0 mps 721 mmHg 54%
    09:00 +21°C° 0 mm 0 mps 721 mmHg 49%
    10:00 +25°C° 0 mm 1 mps 721 mmHg 44%
    11:00 +26°C° 0 mm 1 mps 721 mmHg 39%
    12:00 +27°C° 0 mm 1 mps 721 mmHg 39%
    13:00 +27°C° 0 mm 2 mps 721 mmHg 39%
    14:00 +27°C° 0 mm 2 mps 721 mmHg 39%
    15:00 +27°C° 0 mm 2 mps 721 mmHg 41%
    16:00 +27°C° 0 mm 2 mps 720 mmHg 43%
    17:00 +27°C° 0 mm 2 mps 720 mmHg 45%
    18:00 +24°C° 0 mm 2 mps 720 mmHg 54%
    19:00 +21°C° 0 mm 2 mps 720 mmHg 64%
    20:00 +20°C° 0 mm 1 mps 720 mmHg 73%
    21:00 +18°C° 0 mm 2 mps 720 mmHg 76%
    22:00 +17°C° 0 mm 2 mps 720 mmHg 79%
    23:00 +16°C° 0 mm 2 mps 721 mmHg 82%

    Day after tomorrow, 27 May, Monday

    Time Temperature Precipitation Wind Pressure Humidity
    00:00 +16°C° 0 mm 1 mps 721 mmHg 83%
    01:00 +16°C° 0 mm 1 mps 720 mmHg 85%
    02:00 +16°C° 0 mm 1 mps 720 mmHg 86%
    03:00 +15°C° 0 mm 1 mps 720 mmHg 86%
    04:00 +15°C° 0 mm 1 mps 720 mmHg 86%
    05:00 +15°C° 0 mm 1 mps 720 mmHg 86%
    06:00 +18°C° 0 mm 1 mps 720 mmHg 77%
    07:00 +21°C° 0 mm 1 mps 720 mmHg 68%
    08:00 +23°C° 0 mm 1 mps 721 mmHg 59%
    09:00 +25°C° 0 mm 2 mps 721 mmHg 53%
    10:00 +26°C° 0 mm 2 mps 721 mmHg 48%
    11:00 +27°C° 0 mm 3 mps 721 mmHg 43%
    12:00 +28°C° 0 mm 3 mps 721 mmHg 43%
    13:00 +28°C° 0 mm 3 mps 720 mmHg 43%
    14:00 +29°C° 0 mm 4 mps 720 mmHg 43%
    15:00 +28°C° 0 mm 3 mps 720 mmHg 46%
    16:00 +27°C° 0 mm 3 mps 719 mmHg 48%
    17:00 +27°C° 0 mm 3 mps 719 mmHg 51%
    18:00 +25°C° 0 mm 3 mps 719 mmHg 58%
    19:00 +23°C° 0 mm 2 mps 719 mmHg 65%
    20:00 +20°C° 0 mm 2 mps 719 mmHg 73%
    21:00 +19°C° 0 mm 2 mps 718 mmHg 75%
    22:00 +18°C° 0 mm 2 mps 718 mmHg 77%
    23:00 +17°C° 0 mm 2 mps 718 mmHg 79%

    28 May, Tuesday

    Time Temperature Precipitation Wind Pressure Humidity
    00:00 +16°C° 0 mm 2 mps 718 mmHg 75%
    01:00 +16°C° 0 mm 2 mps 718 mmHg 71%
    02:00 +16°C° 0 mm 2 mps 718 mmHg 67%
    03:00 +16°C° 0 mm 2 mps 717 mmHg 63%
    04:00 +15°C° 0 mm 2 mps 717 mmHg 59%
    05:00 +15°C° 0 mm 2 mps 717 mmHg 55%
    06:00 +18°C° 0 mm 2 mps 717 mmHg 51%
    07:00 +20°C° 0 mm 2 mps 717 mmHg 47%
    08:00 +24°C° 0 mm 3 mps 717 mmHg 43%
    09:00 +25°C° 0 mm 3 mps 717 mmHg 41%
    10:00 +26°C° 0 mm 4 mps 717 mmHg 40%
    11:00 +27°C° 0 mm 5 mps 717 mmHg 38%
    12:00 +27°C° 0 mm 5 mps 716 mmHg 39%
    13:00 +28°C° 0 mm 5 mps 716 mmHg 40%
    14:00 +28°C° 0 mm 5 mps 715 mmHg 40%
    15:00 +27°C° 0 mm 5 mps 715 mmHg 43%
    16:00 +27°C° 0 mm 5 mps 715 mmHg 45%
    17:00 +26°C° 0 mm 4 mps 715 mmHg 47%
    18:00 +23°C° 0.1 mm 4 mps 715 mmHg 57%
    19:00 +21°C° 0.1 mm 3 mps 714 mmHg 66%
    20:00 +19°C° 0.1 mm 2 mps 714 mmHg 75%
    21:00 +18°C° 0 mm 2 mps 715 mmHg 77%
    22:00 +17°C° 0 mm 2 mps 715 mmHg 80%
    23:00 +16°C° 0 mm 2 mps 715 mmHg 82%

    29 May, Wednesday

    Time Temperature Precipitation Wind Pressure Humidity
    00:00 +16°C° 0 mm 2 mps 716 mmHg 84%
    01:00 +16°C° 0 mm 2 mps 716 mmHg 85%
    02:00 +15°C° 0 mm 2 mps 716 mmHg 87%
    03:00 +15°C° 0 mm 2 mps 716 mmHg 88%
    04:00 +15°C° 0 mm 1 mps 716 mmHg 89%
    05:00 +15°C° 0 mm 1 mps 716 mmHg 90%
    06:00 +17°C° 0 mm 2 mps 716 mmHg 80%
    07:00 +19°C° 0 mm 2 mps 717 mmHg 69%
    08:00 +21°C° 0 mm 2 mps 717 mmHg 59%
    09:00 +23°C° 0 mm 2 mps 717 mmHg 55%
    10:00 +25°C° 0 mm 3 mps 717 mmHg 51%
    11:00 +26°C° 0 mm 3 mps 718 mmHg 47%
    12:00 +26°C° 0 mm 3 mps 718 mmHg 47%
    13:00 +27°C° 0 mm 4 mps 717 mmHg 46%
    14:00 +27°C° 0 mm 4 mps 717 mmHg 46%
    15:00 +27°C° 0 mm 4 mps 717 mmHg 47%
    16:00 +26°C° 0 mm 4 mps 717 mmHg 48%
    17:00 +26°C° 0 mm 4 mps 717 mmHg 49%
    18:00 +24°C° 0.1 mm 3 mps 718 mmHg 58%
    19:00 +21°C° 0.1 mm 2 mps 718 mmHg 66%
    20:00 +19°C° 0.1 mm 2 mps 718 mmHg 74%
    21:00 +19°C° 0 mm 1 mps 718 mmHg 77%
    22:00 +18°C° 0 mm 1 mps 719 mmHg 80%
    23:00 +15°C° 0 mm 0 mps 719 mmHg 83%

    30 May, Thursday

    Time Temperature Precipitation Wind Pressure Humidity
    00:00 +15°C° 0 mm 0 mps 719 mmHg 84%
    01:00 +14°C° 0 mm 0 mps 719 mmHg 85%
    02:00 +15°C° 0 mm 1 mps 719 mmHg 86%
    03:00 +15°C° 0 mm 1 mps 719 mmHg 86%
    04:00 +15°C° 0 mm 1 mps 719 mmHg 86%
    05:00 +14°C° 0 mm 1 mps 719 mmHg 86%
    06:00 +18°C° 0 mm 1 mps 720 mmHg 77%
    07:00 +20°C° 0 mm 1 mps 720 mmHg 68%
    08:00 +23°C° 0 mm 1 mps 721 mmHg 59%
    09:00 +24°C° 0.1 mm 1 mps 721 mmHg 54%
    10:00 +25°C° 0.1 mm 1 mps 721 mmHg 50%
    11:00 +26°C° 0.1 mm 1 mps 721 mmHg 46%
    12:00 +27°C° 0.1 mm 2 mps 721 mmHg 44%
    13:00 +27°C° 0.1 mm 2 mps 721 mmHg 42%
    14:00 +27°C° 0.1 mm 2 mps 720 mmHg 41%
    15:00 +27°C° 0.1 mm 2 mps 720 mmHg 41%
    16:00 +27°C° 0.1 mm 2 mps 720 mmHg 41%
    17:00 +27°C° 0.1 mm 2 mps 720 mmHg 41%
    18:00 +25°C° 0 mm 1 mps 720 mmHg 49%
    19:00 +22°C° 0 mm 1 mps 720 mmHg 58%
    20:00 +20°C° 0 mm 1 mps 720 mmHg 66%
    21:00 +19°C° 0.1 mm 1 mps 720 mmHg 69%
    22:00 +19°C° 0.1 mm 1 mps 720 mmHg 72%
    23:00 +18°C° 0.1 mm 1 mps 720 mmHg 75%
    Show more